Flag for U.S.A. Weather past 2 weeks in Springfield, Massachusetts, U.S.A.

Now
36 °F

Clear.


Feels Like: 33 °F
Forecast: 28 / 50 °F
Wind: 3 mph from Northeast

Location: Barnes Municipal Airport


UV Index: 5 (Moderate)

Visibility: 10 mi


Pressure: 30.55 "Hg

Humidity: 44%

Dew point: 16 °F

Location of SpringfieldLocation

Historic Weather in Springfield

°F

Springfield temperature yesterday

Maximum temperature yesterday: 63 °F (at 12:53 AM)
Minimum temperature yesterday: 33 °F (at 11:53 PM)
Average temperature yesterday: 57 °F

Past Weeks' High & Low Weather Summary

 TemperatureHumidityPressure
High76 °F (Apr 14, 1:53 PM)97% (Apr 8, 2:53 AM)30.50 "Hg (Apr 8, 2:53 AM)
Low26 °F (Apr 10, 5:53 AM)17% (Apr 6, 2:53 PM)29.30 "Hg (Apr 8, 2:53 PM)
Average49 °F58%29.97 "Hg
* Reported Apr 1 7:53 PM — Apr 16 7:53 PM, Springfield, Weather by CustomWeather, © 2014

Note: Actual official high and low records may vary slightly from our data, if they occured in-between our weather recording intervals... More about our weather records

Advertising

Historic Weather Conditions — Data for Previous 24 hours

 ConditionsComfort  
Time TempWeatherWind HumidityBarometerVisibility
7:53 PM
Apr 16
39 °FSunny.8 mph38%30.50 "Hg10 mi
6:53 PM42 °FSunny.13 mph32%30.47 "Hg10 mi
5:53 PM44 °FSunny.12 mph28%30.45 "Hg10 mi
4:53 PM45 °FSunny.15 mph30%30.43 "Hg10 mi
3:53 PM44 °FSunny.12 mph28%30.42 "Hg10 mi
2:53 PM43 °FSunny.N/A32%30.41 "Hg10 mi
1:53 PM42 °FSunny.15 mph33%30.40 "Hg10 mi
12:53 PM40 °FSunny.18 mph40%30.37 "Hg10 mi
11:53 AM38 °FSunny.22 mph41%30.34 "Hg10 mi
10:53 AM36 °FSunny.13 mph40%30.32 "Hg10 mi
9:53 AM33 °FSunny.20 mph43%30.28 "Hg10 mi
8:53 AM32 °FPassing clouds.16 mph50%30.24 "Hg10 mi
7:53 AM30 °FScattered clouds.18 mph56%30.21 "Hg10 mi
6:58 AM30 °FPassing clouds.12 mph61%30.14 "Hg10 mi
5:53 AM31 °FPassing clouds.18 mph54%30.07 "Hg10 mi
4:53 AM32 °FOvercast.13 mph66%30.02 "Hg10 mi
3:53 AM32 °FOvercast.16 mph66%29.94 "Hg10 mi
2:53 AM32 °FOvercast.14 mph69%29.89 "Hg10 mi
2:00 AM31 °FLight snow. Mostly cloudy.13 mph79%29.91 "Hg7 mi
12:53 AM32 °FLight snow. Ice fog.12 mph85%29.88 "Hg1 mi
11:53 PM
Apr 15
33 °FLight snow. Fog.15 mph88%29.85 "Hg1 mi
10:53 PM36 °FLight rain. Overcast.20 mph75%29.83 "Hg10 mi
9:53 PM38 °FLight rain. Overcast.15 mph79%29.78 "Hg10 mi
Weather by CustomWeather, © 2014

See weather overview